Location: *
(46.3500°N, 10.9000°E)
Time: 22:53:22
(UTC+00:00)

A-11 Canister half - Pass Details

Date: 29 April 2021
Orbit: 1526 x 1682 km, 47.3° (Epoch: 13 May)

Event Time Altitude Azimuth Distance (km) Brightness Sun altitude
Rises 20:26:44 0° 287° (WNW) 4,938 12.7 -18.3°
Reaches altitude 10° 20:32:17 10° 263° (W) 3,944 11.6 -18.9°
Maximum altitude 20:36:23 13° 238° (WSW) 3,673 11.1 -19.4°
Drops below altitude 10° 20:40:30 10° 214° (SSW) 3,916 11.0 -19.9°
Enters shadow 20:44:38 - 194° (SSW) 4,584 11.1 -20.3°
Sets 20:46:01 0° 189° (S) 4,873 - -20.5°
